Powrót do katalogu

SL-8 R/B

AktywnyPO
NORAD 15506·ROCKET BODY·🇷🇺 Russia

Wystrzelony Feb 1, 1985 z Plesetsk Cosmodrome

Loading…

Następne Przeloty (najbliższe 24 godziny)

TLE

ŚwieżeSource: Space-Track

Epoka: Sep 14, 2026, 21:56 UTC

1 15506U 85011B   26257.91457329  .00000108  00000-0  94539-4 0  9997
2 15506  82.9188 306.5820 0035556 331.6490 145.9568 13.76529824 89618

Śledź SL-8 R/B w czasie rzeczywistym z AllMySat

Download on the App Store